TimeCST,TemperatureF,Dew PointF,Humidity,Sea Level PressureIn,VisibilityMPH,Wind Direction,Wind SpeedMPH,Gust SpeedMPH,PrecipitationIn,Events,Conditions,WindDirDegrees,DateUTC
12:52 AM,-7.1,-15.0,68,30.63,10.0,NW,13.8,-,N/A,,Clear,310,2014-02-06 06:52:00
1:52 AM,-8.0,-15.0,71,30.61,10.0,WNW,12.7,-,N/A,,Clear,300,2014-02-06 07:52:00
2:52 AM,-9.0,-16.1,71,30.60,10.0,WNW,10.4,-,N/A,,Clear,300,2014-02-06 08:52:00
3:52 AM,-9.9,-17.0,71,30.59,10.0,WNW,5.8,-,N/A,,Clear,300,2014-02-06 09:52:00
4:52 AM,-11.0,-18.0,71,30.58,10.0,WNW,10.4,-,N/A,,Clear,290,2014-02-06 10:52:00
5:52 AM,-11.0,-18.0,71,30.57,10.0,WNW,5.8,-,N/A,,Clear,300,2014-02-06 11:52:00
6:52 AM,-11.0,-18.0,71,30.55,10.0,WNW,9.2,-,N/A,,Clear,300,2014-02-06 12:52:00
7:52 AM,-11.0,-17.0,75,30.54,10.0,WNW,8.1,-,N/A,,Clear,300,2014-02-06 13:52:00
8:52 AM,-7.1,-15.0,68,30.53,10.0,NW,11.5,-,N/A,,Clear,310,2014-02-06 14:52:00
9:52 AM,-2.9,-13.0,62,30.51,10.0,NW,16.1,-,N/A,,Clear,310,2014-02-06 15:52:00
10:52 AM,-0.0,-11.0,60,30.49,10.0,WNW,16.1,-,N/A,,Clear,300,2014-02-06 16:52:00
11:36 AM,1.0,-9.0,63,30.32,10.0,WNW,19.6,28.8,N/A,,Mostly Cloudy,300,2014-02-06 17:36:00
11:52 AM,1.9,-7.1,66,30.47,10.0,NW,18.4,-,N/A,,Overcast,310,2014-02-06 17:52:00
12:52 PM,3.9,-6.0,64,30.44,10.0,WNW,16.1,-,N/A,,Overcast,290,2014-02-06 18:52:00
1:52 PM,3.9,-7.1,60,30.41,10.0,WNW,17.3,-,N/A,,Scattered Clouds,300,2014-02-06 19:52:00
2:52 PM,3.9,-7.1,60,30.38,10.0,WNW,17.3,-,N/A,,Clear,300,2014-02-06 20:52:00
3:52 PM,3.9,-7.1,60,30.37,10.0,WNW,13.8,-,N/A,,Clear,290,2014-02-06 21:52:00
4:52 PM,3.0,-9.0,57,30.36,10.0,West,16.1,-,N/A,,Clear,280,2014-02-06 22:52:00
5:52 PM,-0.0,-11.0,60,30.35,10.0,West,11.5,-,N/A,,Clear,270,2014-02-06 23:52:00
6:52 PM,-2.9,-11.9,65,30.35,10.0,West,9.2,-,N/A,,Clear,260,2014-02-07 00:52:00
7:52 PM,-5.1,-13.0,69,30.34,10.0,WSW,9.2,-,N/A,,Clear,250,2014-02-07 01:52:00
8:52 PM,-5.1,-14.1,65,30.32,10.0,West,10.4,-,N/A,,Clear,270,2014-02-07 02:52:00
9:52 PM,-7.1,-16.1,65,30.30,10.0,WNW,9.2,-,N/A,,Clear,290,2014-02-07 03:52:00
10:52 PM,-7.1,-15.0,68,30.29,10.0,West,10.4,-,N/A,,Clear,270,2014-02-07 04:52:00
11:52 PM,-7.1,-16.1,65,30.26,10.0,West,8.1,-,N/A,,Clear,260,2014-02-07 05:52:00